Home   Weather   Paros   Past weeks
Flag for Greece

Past Weather in Paros, Greece — Yesterday and Last 2 Weeks

Now
75 °F

Light rain. Overcast.


Feels Like: 77 °F
Forecast: 80 / 74 °F
Wind: 7 mph from Northwest

Location: Syros Airport

Current Time: Jul 17, 2019 at 3:45:53 am

Latest Report: Jul 17, 2019 at 2:20 am


Visibility: N/A

Pressure: 29.65 "Hg

Humidity: 65%

Dew Point: 63 °F

Location of ParosLocation

Past Weather in Paros — Graph

°F

Paros Temperature Yesterday

Maximum temperature yesterday: 82 °F (at 11:50 am)
Minimum temperature yesterday: 70 °F (at 3:20 am)
Average temperature yesterday: 75 °F

High & Low Weather Summary for the Past Weeks

 TemperatureHumidityPressure
High91 °F (Jul 8, 2:50 pm)89% (Jul 14, 4:20 pm)29.92 "Hg (Jul 14, 4:20 pm)
Low70 °F (Jul 16, 3:20 am)31% (Jul 9, 7:50 am)29.59 "Hg (Jul 11, 4:50 am)
Average79 °F56%29.80 "Hg
* Reported Jul 2 2:20 am — Jul 17 2:20 am, Paros. Weather by CustomWeather, © 2019

Note: Actual official high and low records may vary slightly from our data, if they occured in-between our weather recording intervals... More about our weather records

Advertising

Paros Weather History for the Previous 24 Hours

Scroll right to see more
 ConditionsComfort  
Time TempWeatherWind HumidityBarometerVisibility
2:20 am
Wed, Jul 17
75 °FLight rain. Overcast.7 mph65%29.65 "HgN/A
1:20 am75 °FMild.14 mph69%29.65 "HgN/A
12:50 am75 °FLight rain. Overcast.8 mph65%29.65 "HgN/A
11:50 pm
Tue, Jul 16
75 °FMild.10 mph65%29.68 "HgN/A
11:20 pm75 °FMild.15 mph69%29.65 "HgN/A
10:50 pm75 °FMild.12 mph57%29.68 "HgN/A
9:50 pm75 °FMild.12 mph65%29.68 "HgN/A
7:50 pm75 °FSunny.17 mph65%29.65 "Hg10 mi
7:20 pm75 °FMild.15 mph65%29.65 "HgN/A
5:50 pm79 °FSunny.16 mph54%29.68 "Hg10 mi
5:20 pm81 °FSunny.14 mph54%29.68 "Hg10 mi
4:50 pm81 °FSunny.9 mph54%29.68 "Hg10 mi
4:20 pm81 °FWarm.10 mph51%29.68 "HgN/A
3:50 pm81 °FWarm.10 mph51%29.68 "HgN/A
3:20 pm81 °FWarm.13 mph51%29.68 "HgN/A
2:50 pm81 °FWarm.14 mph51%29.68 "HgN/A
2:20 pm79 °FWarm.15 mph54%29.68 "HgN/A
1:50 pm79 °FWarm.14 mph58%29.71 "HgN/A
1:20 pm79 °FSunny.16 mph54%29.71 "Hg10 mi
12:50 pm79 °FSunny.16 mph54%29.71 "Hg10 mi
11:50 am82 °FPassing clouds.14 mph45%29.71 "HgN/A
10:50 am79 °FPassing clouds.7 mph48%29.74 "HgN/A
9:50 am79 °FSunny.12 mph54%29.74 "Hg10 mi
8:50 am77 °FSunny.12 mph54%29.74 "Hg10 mi
7:50 am75 °FSunny.14 mph57%29.74 "Hg10 mi
7:20 am72 °FSunny.6 mph73%29.74 "Hg10 mi
6:50 am72 °FMild.6 mph69%29.74 "HgN/A
6:20 am72 °FMild.7 mph69%29.74 "HgN/A
5:50 am72 °FMild.10 mph69%29.74 "HgN/A
5:20 am72 °FMild.5 mph73%29.74 "HgN/A
4:50 am72 °FMild.8 mph73%29.74 "HgN/A
4:20 am72 °FMild.8 mph69%29.74 "HgN/A
3:50 am72 °FMild.8 mph69%29.74 "HgN/A
3:20 am70 °FMild.2 mph73%29.77 "HgN/A
Weather by CustomWeather, © 2019

See weather overview

LIVE PARTIAL LUNAR ECLIPSE – Watch the eclipse as it happens